Regional Weather Roundup
Issued by NWS

Home | Current Version | Previous Version | Text Only | Print | Product List | Glossary On
Versions: 1 2 3 4 5 6 7 8 9 10 11 12 13 14 15 16 17 18 19 20 21 22 23 24 25 26 27 28 29 30 31 32 33 34 35 36 37 38 39 40 41 42 43 44 45 46 47 48 49 50
807
ASUS42 KKEY 281310
RWRKEY

FLORIDA REGIONAL WEATHER ROUNDUP FOR THE FLORIDA KEYS
NATIONAL WEATHER SERVICE KEY WEST FLORIDA
900 AM EDT TUE MAR 28 2017

...SOUTH FLORIDA AND THE KEYS...

CITY           SKY/WX    TMP DP  RH WIND       PRES   REMARKS
FORT MYERS     SUNNY     70  61  73 E3        30.07R
SW REGIONAL AP SUNNY     66  59  78 E3        30.07R
NAPLES         SUNNY     70  62  76 NE3       30.06R
MIAMI          MOSUNNY   72  62  71 N3        30.05R
WEST KENDALL   SUNNY     73  63  70 N3        30.05R
HOMESTEAD      SUNNY     71  64  78 N5        30.04R
MARATHON       PTSUNNY   76  69  79 NE8       30.03R
BOCA CHICA NAS MOSUNNY   74  66  76 NE8       30.04R
KEY WEST INTL  SUNNY     76  67  73 NE5       30.04R

...INTERNATIONAL WEATHER...

CITY           SKY/WX    TMP DP  RH WIND       PRES   REMARKS
NASSAU BAHAMAS MOSUNNY   75  66  73 E3        30.06R
CANCUN MEXICO  MOSUNNY   77  70  78 E8        29.96R
COZUMEL MEXICO MOSUNNY   72  70  94 CALM      29.93

ADJACENT COASTAL WATERS...

STATION/POSITION TIME  SKY/WX   TEMP    WIND        PRES    WAVE
                                AIR SEA DIR/SP/G            HT/PER
                 (UTC)          (F)     (DEG/KT/KT) (MB)    (FT/S)
PULASKI SHOAL LI 1200            73      80/ 15/ 16 1016.5R
SAND KEY         1250            74      70/ 13/ 15 1017.5R
LONG KEY         1200            73 75   90/  4/  8 1016.9R
MOLASSES REEF    1200            75 78   CALM  /  1 1017.0R
FOWEY ROCKS      1200            72 76  330/  7/  7 1017.5R
Buoy 42097       1300                                 N/A     1/ 3

$$




USA.gov is the U.S. government's official web portal to all federal, state and local government web resources and services.